• în Republica Moldova
  • Lista ţărilor
  • Pe 7 zile
  • Temperatura apei
  • Hartă satelitară
  • Meteo pe hartă
  • Widget-uri
  • user-avatar
    Intrare

    Meteo pe oră la Tibissa

    Astăzi, 16 Iulie, Luni

    Timp Temperatura Precipitaţii Vânt Presiune Umiditate
    00:00 +34°C° 0 mm 3 m/s 688 mmHg 31%
    01:00 +33°C° 0 mm 3 m/s 688 mmHg 37%
    02:00 +31°C° 0 mm 3 m/s 688 mmHg 37%
    03:00 +31°C° 0 mm 3 m/s 688 mmHg 38%
    04:00 +30°C° 0 mm 3 m/s 687 mmHg 38%
    05:00 +31°C° 0 mm 3 m/s 688 mmHg 34%
    06:00 +33°C° 0 mm 3 m/s 688 mmHg 31%
    07:00 +33°C° 0 mm 4 m/s 688 mmHg 27%
    08:00 +35°C° 0 mm 5 m/s 689 mmHg 23%
    09:00 +36°C° 0 mm 5 m/s 689 mmHg 20%
    10:00 +39°C° 0 mm 6 m/s 689 mmHg 16%
    11:00 +40°C° 0 mm 6 m/s 689 mmHg 14%
    12:00 +41°C° 0 mm 5 m/s 689 mmHg 13%
    13:00 +42°C° 0 mm 6 m/s 689 mmHg 13%
    14:00 +42°C° 0 mm 6 m/s 689 mmHg 13%
    15:00 +42°C° 0 mm 6 m/s 689 mmHg 13%
    16:00 +42°C° 0 mm 6 m/s 688 mmHg 13%
    17:00 +41°C° 0 mm 7 m/s 688 mmHg 15%
    18:00 +40°C° 0 mm 7 m/s 688 mmHg 17%
    19:00 +39°C° 0 mm 7 m/s 688 mmHg 20%
    20:00 +36°C° 0 mm 6 m/s 688 mmHg 24%
    21:00 +33°C° 0 mm 5 m/s 688 mmHg 28%
    22:00 +30°C° 0 mm 4 m/s 688 mmHg 32%
    23:00 +29°C° 0 mm 4 m/s 688 mmHg 34%

    Mâine, 17 Iulie, Marţi

    Timp Temperatura Precipitaţii Vânt Presiune Umiditate
    00:00 +28°C° 0 mm 4 m/s 688 mmHg 36%
    01:00 +27°C° 0 mm 4 m/s 688 mmHg 38%
    02:00 +27°C° 0 mm 3 m/s 688 mmHg 39%
    03:00 +26°C° 0 mm 2 m/s 688 mmHg 39%
    04:00 +26°C° 0 mm 2 m/s 688 mmHg 39%
    05:00 +26°C° 0 mm 2 m/s 688 mmHg 38%
    06:00 +26°C° 0 mm 2 m/s 688 mmHg 37%
    07:00 +26°C° 0 mm 2 m/s 688 mmHg 36%
    08:00 +28°C° 0 mm 2 m/s 688 mmHg 32%
    09:00 +29°C° 0 mm 2 m/s 689 mmHg 28%
    10:00 +30°C° 0 mm 2 m/s 689 mmHg 24%
    11:00 +32°C° 0 mm 2 m/s 689 mmHg 22%
    12:00 +34°C° 0 mm 2 m/s 689 mmHg 20%
    13:00 +35°C° 0 mm 2 m/s 689 mmHg 18%
    14:00 +36°C° 0 mm 2 m/s 689 mmHg 17%
    15:00 +37°C° 0 mm 3 m/s 689 mmHg 16%
    16:00 +38°C° 0 mm 3 m/s 689 mmHg 15%
    17:00 +37°C° 0 mm 4 m/s 689 mmHg 16%
    18:00 +37°C° 0 mm 4 m/s 689 mmHg 17%
    19:00 +36°C° 0 mm 5 m/s 688 mmHg 18%
    20:00 +35°C° 0 mm 4 m/s 689 mmHg 22%
    21:00 +33°C° 0 mm 4 m/s 689 mmHg 26%
    22:00 +31°C° 0 mm 3 m/s 689 mmHg 30%
    23:00 +30°C° 0 mm 3 m/s 689 mmHg 34%

    Poimâine, 18 Iulie, Miercuri

    Timp Temperatura Precipitaţii Vânt Presiune Umiditate
    00:00 +29°C° 0 mm 2 m/s 689 mmHg 37%
    01:00 +28°C° 0 mm 2 m/s 688 mmHg 41%
    02:00 +28°C° 0 mm 1 m/s 688 mmHg 43%
    03:00 +27°C° 0 mm 1 m/s 688 mmHg 45%
    04:00 +27°C° 0 mm 1 m/s 687 mmHg 48%
    05:00 +27°C° 0 mm 1 m/s 687 mmHg 46%
    06:00 +27°C° 0 mm 1 m/s 687 mmHg 45%
    07:00 +28°C° 0 mm 1 m/s 687 mmHg 44%
    08:00 +30°C° 0 mm 1 m/s 688 mmHg 38%
    09:00 +32°C° 0 mm 2 m/s 688 mmHg 32%
    10:00 +34°C° 0 mm 2 m/s 689 mmHg 26%
    11:00 +36°C° 0 mm 3 m/s 689 mmHg 23%
    12:00 +38°C° 0 mm 3 m/s 689 mmHg 20%
    13:00 +40°C° 0 mm 4 m/s 689 mmHg 17%
    14:00 +41°C° 0 mm 4 m/s 689 mmHg 16%
    15:00 +41°C° 0 mm 5 m/s 688 mmHg 15%
    16:00 +41°C° 0 mm 5 m/s 688 mmHg 14%
    17:00 +41°C° 0 mm 5 m/s 688 mmHg 14%
    18:00 +40°C° 0 mm 5 m/s 688 mmHg 15%
    19:00 +40°C° 0 mm 5 m/s 687 mmHg 16%
    20:00 +37°C° 0 mm 4 m/s 688 mmHg 18%
    21:00 +36°C° 0 mm 4 m/s 688 mmHg 21%
    22:00 +35°C° 0 mm 3 m/s 688 mmHg 23%
    23:00 +34°C° 0 mm 3 m/s 687 mmHg 24%

    19 Iulie, Joi

    Timp Temperatura Precipitaţii Vânt Presiune Umiditate
    00:00 +32°C° 0 mm 2 m/s 687 mmHg 25%
    01:00 +31°C° 0 mm 2 m/s 687 mmHg 27%
    02:00 +31°C° 0 mm 2 m/s 687 mmHg 28%
    03:00 +30°C° 0 mm 2 m/s 686 mmHg 28%
    04:00 +30°C° 0 mm 2 m/s 686 mmHg 29%
    05:00 +31°C° 0 mm 2 m/s 686 mmHg 28%
    06:00 +31°C° 0 mm 2 m/s 687 mmHg 27%
    07:00 +32°C° 0 mm 2 m/s 687 mmHg 26%
    08:00 +34°C° 0 mm 2 m/s 687 mmHg 23%
    09:00 +36°C° 0 mm 3 m/s 688 mmHg 20%
    10:00 +38°C° 0 mm 3 m/s 688 mmHg 18%
    11:00 +40°C° 0 mm 4 m/s 688 mmHg 17%
    12:00 +41°C° 0 mm 4 m/s 688 mmHg 15%
    13:00 +42°C° 0 mm 5 m/s 688 mmHg 14%
    14:00 +42°C° 0 mm 5 m/s 688 mmHg 13%
    15:00 +42°C° 0 mm 5 m/s 688 mmHg 13%
    16:00 +42°C° 0 mm 5 m/s 688 mmHg 12%
    17:00 +41°C° 0 mm 5 m/s 688 mmHg 13%
    18:00 +40°C° 0 mm 5 m/s 688 mmHg 15%
    19:00 +39°C° 0 mm 5 m/s 688 mmHg 16%
    20:00 +37°C° 0 mm 4 m/s 688 mmHg 18%
    21:00 +36°C° 0 mm 4 m/s 688 mmHg 20%
    22:00 +35°C° 0 mm 4 m/s 688 mmHg 22%
    23:00 +34°C° 0 mm 3 m/s 688 mmHg 24%

    20 Iulie, Vineri

    Timp Temperatura Precipitaţii Vânt Presiune Umiditate
    00:00 +32°C° 0 mm 2 m/s 688 mmHg 26%
    01:00 +31°C° 0 mm 1 m/s 688 mmHg 28%
    02:00 +31°C° 0 mm 1 m/s 687 mmHg 28%
    03:00 +31°C° 0 mm 1 m/s 687 mmHg 29%
    04:00 +30°C° 0 mm 1 m/s 687 mmHg 29%
    05:00 +31°C° 0 mm 1 m/s 687 mmHg 28%
    06:00 +32°C° 0 mm 1 m/s 687 mmHg 26%
    07:00 +33°C° 0 mm 1 m/s 688 mmHg 24%
    08:00 +35°C° 0 mm 2 m/s 688 mmHg 22%
    09:00 +37°C° 0 mm 3 m/s 689 mmHg 20%
    10:00 +38°C° 0 mm 4 m/s 689 mmHg 17%
    11:00 +40°C° 0 mm 4 m/s 689 mmHg 16%
    12:00 +41°C° 0 mm 4 m/s 689 mmHg 15%
    13:00 +42°C° 0 mm 4 m/s 689 mmHg 14%
    14:00 +42°C° 0 mm 4 m/s 689 mmHg 14%
    15:00 +42°C° 0 mm 3 m/s 688 mmHg 14%
    16:00 +42°C° 0 mm 3 m/s 688 mmHg 14%
    17:00 +40°C° 0 mm 3 m/s 688 mmHg 14%
    18:00 +40°C° 0 mm 4 m/s 688 mmHg 15%
    19:00 +40°C° 0 mm 4 m/s 688 mmHg 16%
    20:00 +37°C° 0 mm 4 m/s 688 mmHg 18%
    21:00 +36°C° 0 mm 3 m/s 688 mmHg 21%
    22:00 +35°C° 0 mm 3 m/s 688 mmHg 23%
    23:00 +34°C° 0 mm 2 m/s 688 mmHg 25%

    21 Iulie, Sâmbătă

    Timp Temperatura Precipitaţii Vânt Presiune Umiditate
    00:00 +32°C° 0 mm 2 m/s 688 mmHg 28%
    01:00 +31°C° 0 mm 2 m/s 688 mmHg 30%
    02:00 +31°C° 0 mm 2 m/s 688 mmHg 30%
    03:00 +31°C° 0 mm 2 m/s 687 mmHg 30%
    04:00 +31°C° 0 mm 2 m/s 687 mmHg 30%
    05:00 +31°C° 0 mm 2 m/s 687 mmHg 28%
    06:00 +33°C° 0 mm 3 m/s 688 mmHg 27%
    07:00 +34°C° 0 mm 4 m/s 688 mmHg 26%
    08:00 +35°C° 0 mm 5 m/s 688 mmHg 22%
    09:00 +38°C° 0 mm 7 m/s 688 mmHg 19%
    10:00 +40°C° 0 mm 9 m/s 689 mmHg 15%
    11:00 +42°C° 0 mm 9 m/s 689 mmHg 14%
    12:00 +43°C° 0 mm 9 m/s 689 mmHg 12%
    13:00 +44°C° 0 mm 9 m/s 689 mmHg 11%
    14:00 +44°C° 0 mm 9 m/s 688 mmHg 11%
    15:00 +44°C° 0 mm 8 m/s 688 mmHg 10%
    16:00 +45°C° 0 mm 8 m/s 688 mmHg 10%
    17:00 +44°C° 0 mm 7 m/s 688 mmHg 12%
    18:00 +42°C° 0 mm 6 m/s 688 mmHg 14%
    19:00 +41°C° 0 mm 5 m/s 687 mmHg 16%
    20:00 +38°C° 0 mm 4 m/s 688 mmHg 20%
    21:00 +36°C° 0 mm 3 m/s 688 mmHg 24%
    22:00 +35°C° 0 mm 2 m/s 688 mmHg 29%
    23:00 +34°C° 0 mm 2 m/s 687 mmHg 32%
    Arată mai mult